{"data":{"norad_id":62522,"intl_designator":"2025-004M","name":"STARLINK-11516 [DTC]","alt_names":[],"object_type":"PAYLOAD","status":"ACTIVE","operator":null,"country":"US","launch_date":"2025-01-08","launch_site_code":"AFETR","launch_vehicle":null,"mission":null,"orbit_class":"UNKNOWN","rcs_meters":null,"size_class":null,"mass_kg":null,"dimensions":null,"purposes":["comms"],"wikipedia_slug":null,"has_3d_model":false,"image_url":null,"decayed_at":null,"tle_current":{"epoch":"2026-05-25T04:55:58.664640Z","epoch_age_seconds":57258,"freshness":"FRESH","line1":"1 62522U 25004M   26145.20554010  .00238556  00000+0  18056-2 0  9993","line2":"2 62522  43.0003 329.4113 0000968 329.1280  30.9531 15.70894408 79249","mean_motion":15.70894408,"eccentricity":9.68e-5,"inclination_deg":43.0003,"raan_deg":329.4113,"arg_perigee_deg":329.128,"mean_anomaly_deg":30.9531,"bstar":0.0018056,"rev_number":7924,"period_min":91.66752346094,"perigee_km":355.68766047952,"apogee_km":356.99145514111,"semimajor_km":6734.4765578103,"source":"CELESTRAK","updated_at":"2026-05-25T13:38:19.704085Z"}}}